FW5642 Weather Reports


Display with metric or nautical units.
time (UTC)temp
F
wind
direction
speed
MPH
gust
MPH
rain 1hr
in
rain 24hr
in
rain mn
in
humidity
%
barometer
mb
20260505124531 59 324 4.0 8.0 0.00 0.00 0.00 72 1013.3
20260505123037 59 323 3.0 10.0 0.00 0.00 0.00 71 1013.1
20260505120152 61 300 5.0 11.0 0.00 0.00 0.00 69 1012.9
20260505114535 61 286 5.0 10.0 0.00 0.00 0.00 69 1012.8
20260505113038 61 294 4.0 11.0 0.00 0.00 0.00 69 1012.7
20260505101535 62 279 6.0 15.0 0.00 0.00 0.00 67 1012.0
20260505100045 62 296 5.0 13.0 0.00 0.00 0.00 68 1012.0
20260505094534 62 291 5.0 16.0 0.00 0.00 0.00 68 1011.9
20260505093033 62 300 5.0 11.0 0.00 0.00 0.00 69 1011.9
20260505091534 62 305 4.0 10.0 0.00 0.00 0.00 68 1011.7
20260505090037 64 317 4.0 8.0 0.00 0.00 0.00 65 1011.6
20260505083035 64 299 3.0 11.0 0.00 0.00 0.00 65 1011.6
20260505081530 64 300 4.0 12.0 0.00 0.00 0.00 65 1011.5
20260505074531 64 297 3.0 11.0 0.00 0.00 0.00 65 1011.4
20260505064534 64 276 1.0 6.0 0.00 0.00 0.00 63 1011.0
20260505063106 66 268 0.0 6.0 0.00 0.00 0.00 60 1011.0
20260505060142 66 288 3.0 11.0 0.00 0.00 0.00 58 1010.8
20260505054641 66 279 2.0 8.0 0.00 0.00 0.00 57 1010.7
20260505053143 67 257 1.0 10.0 0.00 0.00 0.00 55 1010.6
20260505051537 68 266 4.0 12.0 0.00 0.00 0.00 53 1010.4
20260505040153 70 267 6.0 17.0 0.00 0.00 0.00 50 1009.6
20260505040144 70 265 5.0 18.0 0.00 0.00 0.00 50 1009.4
20260505033030 70 275 4.0 10.0 0.00 0.00 0.00 50 1009.2
20260505031533 71 269 4.0 16.0 0.00 0.00 0.00 49 1009.0
20260505030037 72 268 4.0 13.0 0.00 0.00 0.00 47 1008.8
20260505013036 78 274 7.0 18.0 0.00 0.00 0.00 41 1008.4
20260505011536 79 269 9.0 18.0 0.00 0.00 0.00 41 1008.3
20260505004653 80 276 8.0 17.0 0.00 0.00 0.00 39 1008.3
20260505003037 81 282 8.0 16.0 0.00 0.00 0.00 38 1008.4
20260505000040 82 288 8.0 18.0 0.00 0.00 0.00 37 1008.5
20260504234535 82 290 9.0 18.0 0.00 0.00 0.00 37 1008.5
20260504233142 83 285 9.0 18.0 0.00 0.00 0.00 37 1008.5
20260504231607 83 287 9.0 18.0 0.00 0.00 0.00 37 1008.6
20260504230036 84 293 7.0 15.0 0.00 0.00 0.00 37 1008.8
20260504224537 84 299 8.0 14.0 0.00 0.00 0.00 37 1009.0
20260504223106 84 290 7.0 14.0 0.00 0.00 0.00 37 1009.2
20260504221606 84 295 7.0 14.0 0.00 0.00 0.00 37 1009.3
20260504220032 84 300 7.0 16.0 0.00 0.00 0.00 38 1009.4
20260504214536 83 293 6.0 14.0 0.00 0.00 0.00 38 1009.6
20260504213031 83 296 6.0 14.0 0.00 0.00 0.00 38 1009.7
20260504210036 82 295 4.0 10.0 0.00 0.00 0.00 39 1010.0
20260504204532 81 287 4.0 10.0 0.00 0.00 0.00 39 1010.2
20260504203033 80 299 4.0 10.0 0.00 0.00 0.00 40 1010.3
20260504201641 80 301 5.0 10.0 0.00 0.00 0.00 41 1010.5
20260504200037 80 308 5.0 14.0 0.00 0.00 0.00 42 1010.7
20260504194643 80 301 5.0 12.0 0.00 0.00 0.00 41 1010.7
20260504193031 80 316 6.0 13.0 0.00 0.00 0.00 40 1010.8
20260504190151 80 306 6.0 15.0 0.00 0.00 0.00 40 1011.0
20260504184536 80 302 4.0 11.0 0.00 0.00 0.00 41 1011.0
20260504183031 79 291 4.0 11.0 0.00 0.00 0.00 42 1011.1
20260504181534 78 299 6.0 15.0 0.00 0.00 0.00 42 1011.1
20260504180037 78 297 6.0 16.0 0.00 0.00 0.00 44 1011.1
20260504173032 77 346 2.0 10.0 0.00 0.00 0.00 50 1011.1
20260504171532 73 93 0.0 6.0 0.00 0.00 0.00 56 1011.2
20260504160107 70 109 0.0 3.0 0.00 0.00 0.00 61 1011.8